Location: Brede
(50.9167°N, 0.6000°E)
Time: 20:19:46
(UTC+00:00)

Altair - Pass Details

Date: 03 August 2021
Orbit: 1501 x 1682 km, 47.2° (Epoch: 22 September)

Event Time Altitude Azimuth Distance (km) Brightness Sun altitude
Exits shadow 03:09:58 - 253° (WSW) 3,989 9.1 -10.4°
Reaches altitude 10° 03:10:48 10° 252° (WSW) 3,721 9.0 -10.3°
Maximum altitude 03:20:03 70° 172° (S) 1,598 7.5 -9.3°
Drops below altitude 10° 03:29:08 10° 91° (E) 3,654 10.2 -8.2°
Sets 03:32:09 0° 89° (E) 4,637 10.9 -7.9°
